[[{"header":{"parameterUnit":"m.s-1","parameterCategory":1,"la1":30.2991,"la2":30.254,"lo1":-89.0895,"lo2":-89.0444,"dy":0.0017,"dx":0.0017,"nx":28,"ny":28,"refTime":"2024-05-14T09:00:00:Z","depth":0,"parameterNumber":2,"parameterNumberName":"U-component_of_WINDS"},"data":[0,0,0,0,0,0,0,0,0,0,0,0,0,0,0,0,0,0,0,0,0,0,0,0,0,0,0,0,0,0,0,0,0,0,0,0,0,0,0,0,0,0,0,0,0,0,0,0,0,0,0,0,0,0,0,0,0,0,2.8198,2.8198,0,2.8239,2.8239,2.824,2.8254,2.8254,2.8254,2.8254,2.8297,2.8298,2.8299,0,0,0,0,0,0,0,0,0,0,0,0,0,2.8134,2.8135,2.8197,2.8198,2.8199,2.8239,2.8239,2.824,2.8254,2.8254,2.8254,2.8254,2.8296,2.8298,2.8299,0,0,0,0,0,0,0,0,0,0,0,0,0,2.8167,2.8136,2.8197,2.8211,2.8212,2.8238,2.8239,2.824,2.8254,2.8254,2.8254,2.8254,2.8296,2.8298,2.83,2.8316,0,0,2.8305,2.8306,0,0,0,0,0,0,0,0,2.8165,2.8169,2.8208,2.821,2.8212,2.8241,2.8232,2.8265,2.8254,2.8238,2.8254,2.8254,2.8278,2.8282,2.829,2.8318,2.8319,2.8306,2.8307,2.8307,2.8308,0,0,0,0,0,0,0,2.8163,2.8168,2.8214,2.8209,2.8211,2.8215,2.822,2.8239,2.8259,2.824,2.8241,2.8246,2.8279,2.8288,2.8291,2.832,2.8305,2.8307,2.8308,2.8309,2.8366,2.8366,0,0,0,0,0,0,2.8158,2.8166,2.8212,2.8215,2.8187,2.8217,2.8222,2.8232,2.8259,2.8263,2.8246,2.8246,2.8285,2.8289,2.8293,2.8315,2.8307,2.8309,2.831,2.8366,2.8366,2.8367,0,0,0,0,0,0,2.8157,2.8162,2.8211,2.8191,2.8197,2.8218,2.8229,2.8233,2.8242,2.8263,2.8267,2.8251,2.8285,2.829,2.831,2.8317,2.831,2.8312,2.8365,2.8366,2.8366,2.8359,0,0,0,0,0,0,2.8155,2.8162,2.8167,2.8191,2.8198,2.8227,2.823,2.8234,2.8245,2.8246,2.8269,2.8273,2.8285,2.8307,2.8312,2.8319,2.8313,2.8365,2.8366,2.8366,2.8359,2.8359,2.8359,0,0,0,0,0,2.8153,2.8163,2.8167,2.8173,2.8206,2.8227,2.8232,2.8245,2.8245,2.8252,2.8266,2.8272,2.8315,2.8309,2.8315,2.8323,2.8365,2.8365,2.8366,2.8358,2.8359,2.8359,0,0,0,0,0,0,2.8139,2.8166,2.8171,2.8189,2.8206,2.823,2.8238,2.8245,2.8262,2.8262,2.8279,2.8284,2.8304,2.8315,2.8308,2.8341,2.834,2.8342,2.8333,2.8333,2.8334,2.8331,2.8315,0,0,0,0,0,2.8138,2.8153,2.8176,2.819,2.8198,2.8217,2.8227,2.8236,2.8254,2.8261,2.8277,2.8294,2.8312,2.8323,2.8341,2.8361,2.8367,2.8369,2.8369,2.8369,2.8371,2.8385,2.8386,2.8369,2.8369,2.8369,0,0,2.8137,2.8153,2.8161,2.8188,2.8202,2.8218,2.8222,2.8239,2.8251,2.8263,2.8284,2.8297,2.8318,2.8338,2.8348,2.8349,2.8377,2.837,2.837,2.8372,2.8386,2.8387,2.8389,2.837,2.837,2.837,0,0,2.8142,2.8155,2.8169,2.8184,2.8205,2.8218,2.8221,2.8245,2.8254,2.8275,2.8285,2.8301,2.833,2.8345,2.8357,2.8371,2.8378,2.8376,2.8378,2.8392,2.8393,2.8394,2.8401,2.8403,2.8378,2.8378,2.8378,0,2.8137,2.8161,2.8176,2.8192,2.8204,2.8217,2.8232,2.8246,2.8271,2.828,2.828,2.8319,2.8334,2.836,2.8363,2.8372,2.8378,2.8373,2.8391,2.8393,2.8394,2.8401,2.8403,2.8377,2.8377,2.8377,2.8377,0,2.8155,2.8172,2.8181,2.8206,2.822,2.8235,2.8253,2.8265,2.8274,2.8287,2.831,2.8329,2.8351,2.8358,2.8366,2.8385,2.8385,2.8388,2.8388,2.8395,2.8402,2.8404,2.8377,2.8377,2.8377,2.8377,0,0,2.8151,2.8187,2.819,2.8203,2.8228,2.8242,2.8259,2.8282,2.8292,2.831,2.8326,2.8352,2.8356,2.8369,2.838,2.8391,2.8404,2.8393,2.8394,2.8395,2.8428,2.8427,2.8429,2.8408,2.8409,2.8409,2.8427,0,2.8161,2.8192,2.8207,2.8232,2.8249,2.8262,2.8278,2.8296,2.8309,2.8326,2.8341,2.836,2.8363,2.8371,2.8383,2.8399,2.8411,2.8398,2.8425,2.8425,2.8419,2.8432,2.843,2.8445,2.843,2.843,2.843,0,2.8175,2.8195,2.8221,2.8247,2.8255,2.8268,2.8291,2.8307,2.8329,2.8338,2.8354,2.8365,2.8385,2.8384,2.8413,2.8404,2.8416,2.8426,2.8427,2.8431,2.8428,2.8437,2.845,2.8453,2.8434,2.8434,2.8434,0,2.8172,2.8204,2.8225,2.8235,2.8266,2.8275,2.8289,2.831,2.8324,2.8344,2.8353,2.8375,2.8388,2.8406,2.8423,2.842,2.8451,2.8451,2.8461,2.846,2.8466,2.8466,2.8483,2.8473,2.8473,2.8473,2.8473,0,2.8181,2.8197,2.8224,2.8237,2.8256,2.8274,2.8293,2.8307,2.8327,2.8344,2.8357,2.8373,2.8394,2.8413,2.8427,2.845,2.8455,2.8464,2.8468,2.8463,2.8462,2.8472,2.8471,2.8473,2.8473,2.8473,2.8473,0,2.818,2.8198,2.8222,2.825,2.8257,2.827,2.8295,2.8309,2.8323,2.8345,2.8351,2.8375,2.8398,2.8417,2.8447,2.8456,2.8481,2.8485,2.8474,2.8476,2.8485,2.8484,2.8509,2.8514,2.85,2.85,2.85,0,2.8185,2.8198,2.8227,2.824,2.8253,2.8273,2.8287,2.8306,2.832,2.8348,2.8359,2.8383,2.8403,2.844,2.846,2.8484,2.8489,2.8496,2.8493,2.8489,2.8491,2.849,2.8492,2.8497,2.8497,2.8497,2.8497,0,2.8192,2.8201,2.822,2.8244,2.8261,2.828,2.83,2.831,2.8333,2.8349,2.8373,2.8389,2.8421,2.8445,2.8472,2.8487,2.8496,2.8498,2.8502,2.8498,2.8491,2.8496,2.8476,2.8497,2.8497,2.8497,2.8497,2.8497,2.8194,2.8208,2.8231,2.8253,2.8271,2.829,2.8305,2.8322,2.8343,2.837,2.8381,2.8406,2.843,2.8467,2.8482,2.8503,2.8504,2.8509,2.8511,2.8512,2.8512,2.8488,2.8508,2.8508,2.8508,2.8508,2.8508,0,2.8203,2.822,2.824,2.8268,2.8286,2.8294,2.8317,2.8332,2.8354,2.8376,2.8396,2.8426,2.845,2.8473,2.85,2.8512,2.8517,2.8519,2.8518,2.8522,2.8509,2.8503,2.8514,2.8514,2.8514,2.8514,2.8514,2.8514,2.821,2.8233,2.8246,2.8278,2.8295,2.832,2.8333,2.8351,2.8369,2.8401,2.8422,2.8437,2.846,2.8488,2.8512,2.8519,2.8528,2.8528,2.8536,2.8523,2.8522,2.8522,2.8517,2.853,2.853,2.8547,2.8547,2.8548]},{"header":{"parameterUnit":"m.s-1","parameterCategory":1,"la1":30.2991,"la2":30.254,"lo1":-89.0895,"lo2":-89.0444,"dy":0.0017,"dx":0.0017,"nx":28,"ny":28,"refTime":"2024-05-14T09:00:00:Z","depth":0,"parameterNumber":3,"parameterNumberName":"V-component_of_WINDS"},"data":[0,0,0,0,0,0,0,0,0,0,0,0,0,0,0,0,0,0,0,0,0,0,0,0,0,0,0,0,0,0,0,0,0,0,0,0,0,0,0,0,0,0,0,0,0,0,0,0,0,0,0,0,0,0,0,0,0,0,-2.0904,-2.0904,0,-2.0913,-2.0913,-2.0913,-2.0924,-2.0924,-2.0924,-2.0924,-2.0933,-2.0933,-2.0933,0,0,0,0,0,0,0,0,0,0,0,0,0,-2.0897,-2.0897,-2.0904,-2.0904,-2.0904,-2.0913,-2.0913,-2.0913,-2.0924,-2.0924,-2.0924,-2.0924,-2.0933,-2.0933,-2.0933,0,0,0,0,0,0,0,0,0,0,0,0,0,-2.0903,-2.0897,-2.0904,-2.0911,-2.0911,-2.0913,-2.0913,-2.0913,-2.0924,-2.0924,-2.0924,-2.0924,-2.0933,-2.0933,-2.0933,-2.0929,0,0,-2.0934,-2.0934,0,0,0,0,0,0,0,0,-2.0902,-2.0903,-2.091,-2.091,-2.0911,-2.0918,-2.0914,-2.0919,-2.0924,-2.0919,-2.0924,-2.0925,-2.0928,-2.0928,-2.0929,-2.093,-2.093,-2.0934,-2.0934,-2.0934,-2.0934,0,0,0,0,0,0,0,-2.0902,-2.0903,-2.0908,-2.091,-2.0911,-2.0914,-2.0915,-2.0915,-2.0922,-2.0919,-2.092,-2.0921,-2.0928,-2.0929,-2.093,-2.093,-2.0934,-2.0934,-2.0934,-2.0934,-2.093,-2.0929,0,0,0,0,0,0,-2.0901,-2.0902,-2.0907,-2.0908,-2.0907,-2.0913,-2.0915,-2.0915,-2.0922,-2.0923,-2.0921,-2.0922,-2.0929,-2.0929,-2.093,-2.0927,-2.0934,-2.0934,-2.0934,-2.093,-2.0929,-2.0929,0,0,0,0,0,0,-2.09,-2.0901,-2.0907,-2.0905,-2.0906,-2.0913,-2.0914,-2.0915,-2.0916,-2.0923,-2.0924,-2.0921,-2.0929,-2.093,-2.093,-2.0927,-2.0934,-2.0934,-2.093,-2.093,-2.0929,-2.092,0,0,0,0,0,0,-2.09,-2.0901,-2.0899,-2.0905,-2.0906,-2.0906,-2.0914,-2.0915,-2.0917,-2.0918,-2.0923,-2.0924,-2.0929,-2.093,-2.093,-2.0928,-2.0934,-2.093,-2.093,-2.0929,-2.092,-2.0919,-2.0918,0,0,0,0,0,-2.09,-2.0895,-2.0899,-2.0899,-2.0904,-2.0906,-2.0907,-2.0913,-2.0916,-2.0915,-2.092,-2.0924,-2.0928,-2.0929,-2.093,-2.0928,-2.093,-2.093,-2.093,-2.0921,-2.0919,-2.0918,0,0,0,0,0,0,-2.0888,-2.0896,-2.09,-2.0897,-2.0901,-2.0908,-2.0906,-2.0911,-2.0913,-2.0914,-2.0921,-2.0922,-2.0922,-2.0925,-2.0927,-2.0925,-2.093,-2.0929,-2.0923,-2.0922,-2.0921,-2.092,-2.0934,0,0,0,0,0,-2.0885,-2.0886,-2.0893,-2.089,-2.0892,-2.0899,-2.09,-2.0904,-2.0908,-2.091,-2.0914,-2.0918,-2.092,-2.0921,-2.0923,-2.0921,-2.0923,-2.092,-2.0919,-2.0918,-2.0918,-2.0918,-2.0917,-2.0928,-2.0928,-2.0928,0,0,-2.0879,-2.0884,-2.0883,-2.0888,-2.0891,-2.0892,-2.09,-2.09,-2.0901,-2.091,-2.091,-2.0914,-2.0919,-2.0918,-2.0918,-2.092,-2.0915,-2.0917,-2.0917,-2.0917,-2.0918,-2.0917,-2.0916,-2.0928,-2.0928,-2.0928,0,0,-2.0868,-2.0871,-2.087,-2.0874,-2.0879,-2.0884,-2.0884,-2.089,-2.0893,-2.0894,-2.0901,-2.0903,-2.0906,-2.0909,-2.0912,-2.0905,-2.091,-2.0905,-2.09,-2.09,-2.0899,-2.0899,-2.0897,-2.0897,-2.0905,-2.0905,-2.0905,0,-2.086,-2.0861,-2.0869,-2.0869,-2.0872,-2.088,-2.0879,-2.0882,-2.0888,-2.089,-2.0893,-2.0898,-2.0902,-2.0903,-2.0901,-2.0903,-2.0903,-2.0904,-2.0899,-2.0898,-2.0898,-2.0897,-2.0896,-2.0905,-2.0905,-2.0905,-2.0905,0,-2.0851,-2.0853,-2.0851,-2.0857,-2.0859,-2.0859,-2.0867,-2.0868,-2.0873,-2.0878,-2.088,-2.0885,-2.0889,-2.089,-2.0894,-2.0892,-2.0894,-2.0898,-2.0902,-2.0896,-2.0895,-2.0895,-2.0904,-2.0904,-2.0904,-2.0904,0,0,-2.0832,-2.0844,-2.0843,-2.0847,-2.0854,-2.0855,-2.0856,-2.0861,-2.0863,-2.0867,-2.0868,-2.0872,-2.0876,-2.0879,-2.0884,-2.0884,-2.088,-2.0889,-2.0889,-2.0887,-2.088,-2.0877,-2.0876,-2.0884,-2.0884,-2.0884,-2.0879,0,-2.0823,-2.0825,-2.0833,-2.0833,-2.0835,-2.0844,-2.0845,-2.085,-2.0855,-2.0858,-2.0864,-2.0866,-2.0872,-2.0874,-2.0875,-2.088,-2.0879,-2.0881,-2.0886,-2.0886,-2.0884,-2.0875,-2.0871,-2.0867,-2.0879,-2.0879,-2.0879,0,-2.0813,-2.0817,-2.0817,-2.0827,-2.0828,-2.0828,-2.0834,-2.0837,-2.0843,-2.0847,-2.0851,-2.0857,-2.086,-2.0865,-2.0869,-2.087,-2.0873,-2.0876,-2.0876,-2.0877,-2.0882,-2.0876,-2.0866,-2.0865,-2.0878,-2.0878,-2.0878,0,-2.0799,-2.0806,-2.0807,-2.081,-2.082,-2.0821,-2.0825,-2.0832,-2.0835,-2.084,-2.0842,-2.0848,-2.0851,-2.0855,-2.0863,-2.0865,-2.0866,-2.0871,-2.087,-2.087,-2.0869,-2.0869,-2.086,-2.0871,-2.0871,-2.0871,-2.0871,0,-2.0789,-2.0789,-2.0801,-2.0802,-2.0803,-2.0812,-2.0813,-2.0818,-2.0825,-2.0827,-2.0836,-2.0838,-2.0848,-2.0852,-2.0858,-2.0861,-2.0863,-2.0866,-2.0868,-2.0865,-2.0865,-2.0867,-2.0868,-2.0871,-2.0871,-2.0871,-2.0871,0,-2.0774,-2.0782,-2.0784,-2.0795,-2.0798,-2.0798,-2.0807,-2.0809,-2.0815,-2.0818,-2.082,-2.083,-2.0835,-2.0843,-2.0851,-2.0855,-2.0857,-2.086,-2.0855,-2.0856,-2.0854,-2.0854,-2.0846,-2.0846,-2.0856,-2.0856,-2.0856,0,-2.0766,-2.0767,-2.0778,-2.078,-2.0785,-2.0788,-2.0792,-2.0801,-2.0805,-2.0814,-2.0814,-2.082,-2.0826,-2.0834,-2.0842,-2.0848,-2.0851,-2.0848,-2.0852,-2.085,-2.0852,-2.0852,-2.0852,-2.0846,-2.0846,-2.0846,-2.0846,0,-2.0753,-2.0757,-2.0762,-2.0768,-2.0772,-2.0778,-2.0784,-2.0786,-2.0797,-2.08,-2.0806,-2.081,-2.0819,-2.0825,-2.0832,-2.0837,-2.0844,-2.0845,-2.0845,-2.0842,-2.084,-2.0842,-2.0852,-2.0845,-2.0845,-2.0845,-2.0845,-2.0845,-2.0742,-2.0743,-2.0751,-2.0757,-2.0762,-2.0768,-2.0771,-2.0778,-2.0783,-2.0791,-2.0797,-2.0802,-2.0811,-2.0822,-2.0827,-2.0832,-2.0834,-2.0834,-2.0834,-2.0834,-2.0834,-2.0839,-2.0833,-2.0833,-2.0833,-2.0833,-2.0833,0,-2.0729,-2.0735,-2.074,-2.0749,-2.0753,-2.076,-2.0767,-2.077,-2.0775,-2.0783,-2.0788,-2.0796,-2.0802,-2.0812,-2.0819,-2.0821,-2.0825,-2.0823,-2.0823,-2.0824,-2.083,-2.083,-2.082,-2.082,-2.082,-2.082,-2.082,-2.082,-2.0723,-2.0726,-2.0732,-2.0739,-2.0745,-2.0751,-2.0755,-2.0761,-2.0767,-2.0775,-2.078,-2.0787,-2.0795,-2.0804,-2.081,-2.0813,-2.0816,-2.0813,-2.0817,-2.0822,-2.0824,-2.0825,-2.0824,-2.0814,-2.0814,-2.081,-2.081,-2.081]}]]